��¬ǯ����,10��23��,,,
��¬��,Ĺë�,,,
��¬����,p25,,,
���ٷ��ֹ�,,,,
,,,,
����,����,����,��®,����
15:00:00,-999,-999,-999,
15:01:00,-999,-999,-999,
15:02:00,20,5,2,
15:03:00,20.05,5,2,
15:04:00,20.3,5,3,
15:05:00,20.2,4,4,
15:06:00,19.9,4,5,
15:07:00,20,5,2,
15:08:00,20,4,3,
15:09:00,20,4,5,
15:10:00,19.6,5,1,
15:11:00,19.8,4,4,
15:12:00,19.3,5,5,
15:13:00,19.5,6,2,
15:14:00,20,4,4,
15:15:00,19.9,4,6,
15:16:00,19.3,4,4,�������Ǥ��ʤ��ΤǤ����˵���19.3�٤Ǥ���
15:17:00,19.7,5,3,
15:18:00,19.8,5,2,
15:19:00,19.2,4,4,
15:20:00,19.2,4,4,
15:21:00,19.2,4,3,
15:22:00,19.1,4,4,
15:23:00,19.4,4,3,
15:24:00,19.2,5,1,
15:25:00,19.4,5,2,�����������Ѥ��
15:26:00,19.3,4,3,����줿���⤷��ʤ�
15:27:00,19.1,4,3,
15:28:00,19.1,5,2,
15:29:00,19.1,4,5,
15:30:00,19.2,4,4,
15:31:00,19,4,2,
15:32:00,19,5,5,
15:33:00,19,4,4,
15:34:00,19.1,4,5,
15:35:00,19.1,4,3,
15:36:00,19.3,4,3,
15:37:00,19.1,4,5,
15:38:00,19.1,4,3,
15:39:00,19.3,4,5,
15:40:00,19.2,4,4,
15:41:00,19.3,4,2,
15:42:00,19.5,4,4,
15:43:00,19.3,4,4,
15:44:00,19.2,4,2,������
15:45:00,19.3,4,4,
15:46:00,19.3,4,2,
15:47:00,19.4,4,3,����������ʤ��ʤäƤ���
15:48:00,19.5,4,2,
15:49:00,19.7,4,2,
15:50:00,19.7,4,2,
15:51:00,19.5,4,3,
15:52:00,19.5,4,3,
15:53:00,19.4,4,5,
15:54:00,19.1,4,5,
15:55:00,19,4,4,
15:56:00,19.05,4,4,
15:57:00,19.05,4,3,
15:58:00,19.2,4,4,
15:59:00,19.1,4,4,
16:00:00,19.2,4,3,
16:01:00,19.05,4,3,
16:02:00,19.05,4,2,
16:03:00,19,5,2,
16:04:00,18.95,5,3,
16:05:00,18.9,4,3,
16:06:00,19,5,5,
16:07:00,18.9,4,4,
16:08:00,18.9,3,3,
16:09:00,19,4,4,
16:10:00,18.95,3,3,
16:11:00,19,3,3,
16:12:00,18.9,4,5,
16:13:00,18.9,4,3,
16:14:00,19,4,2,������
16:15:00,19,4,2,
16:16:00,19.1,4,2,
16:17:00,19.1,3,1,
16:18:00,19,5,1,�������Ѳ�
16:19:00,19,4,2,
16:20:00,18.9,5,1,
16:21:00,18.8,5,3,
16:22:00,18.7,4,1,
16:23:00,18.8,6,3,
16:24:00,18.8,5,2,
16:25:00,18.8,5,5,
16:26:00,18.9,4,5,
16:27:00,18.8,5,3,
16:28:00,18.8,5,3,
16:29:00,18.6,5,3,
16:30:00,18.8,5,2,
16:31:00,18.9,5,1,
16:32:00,18.9,6,1,
16:33:00,18.9,6,2,
16:34:00,18.8,5,2,
16:35:00,18.7,4,4,
16:36:00,18.8,5,4,
16:37:00,18.2,4,3,
16:38:00,18.1,4,3,
16:39:00,18.1,4,3,
16:40:00,18.1,4,4,
16:41:00,18,4,5,
16:42:00,18,4,2,
16:43:00,18,5,4,
16:44:00,18,3,4,
16:45:00,17.95,3,2,
16:46:00,17.9,3,4,
16:47:00,17.9,4,4,
16:48:00,17.9,3,3,
16:49:00,17.8,3,4,
16:50:00,17.8,5,3,
16:51:00,17.8,4,3,
16:52:00,17.8,4,2,
16:53:00,17.9,4,3,
16:54:00,17.9,4,2,
16:55:00,17.8,4,3,
16:56:00,17.8,5,4,
16:57:00,17.7,4,2,
16:58:00,17.7,4,2,
16:59:00,17.5,4,2,
17:00:00,17.5,3,4,
